"Period start","avg(HW err(1)/warn(2) (#))","avg(Visibility (m))","avg(Weather code (#))","avg(Precip intensity (mm/h))","min(HW err(1)/warn(2) (#))","max(HW err(1)/warn(2) (#))","std(HW err(1)/warn(2) (#))","med(HW err(1)/warn(2) (#))","min(Visibility (m))","max(Visibility (m))","std(Visibility (m))","med(Visibility (m))","min(Weather code (#))","max(Weather code (#))","std(Weather code (#))","med(Weather code (#))","min(Precip intensity (mm/h))","max(Precip intensity (mm/h))","std(Precip intensity (mm/h))","med(Precip intensity (mm/h))"
2016-09-05 00:00:00,2,9200,10,0.00,2,2,0,2,2105,13696,4065,10794,10,10,0,10,0.00,0.00,0.00,0.00
2016-09-05 00:10:00,2,7989,10,0.00,2,2,0,2,1532,33083,10222,3157,10,10,0,10,0.00,0.00,0.00,0.00
2016-09-05 00:20:00,2,2030,10,0.00,2,2,0,2,834,6580,1619,1519,10,10,0,10,0.00,0.00,0.00,0.00
2016-09-05 00:30:00,2,12058,10,0.00,2,2,0,2,4524,25004,7450,10370,10,10,0,10,0.00,0.00,0.00,0.00
2016-09-05 00:40:00,2,3154,10,0.00,2,2,0,2,1424,4470,1133,3359,10,10,0,10,0.00,0.00,0.00,0.00
2016-09-05 00:50:00,2,3730,10,0.00,2,2,0,2,2676,4667,703,3903,10,10,0,10,0.00,0.00,0.00,0.00
2016-09-05 01:00:00,2,2504,10,0.00,2,2,0,2,1460,4393,904,2333,10,10,0,10,0.00,0.00,0.00,0.00
2016-09-05 01:10:00,2,4741,10,0.00,2,2,0,2,3232,6468,912,4786,10,10,0,10,0.00,0.00,0.00,0.00
2016-09-05 01:20:00,2,12232,10,0.00,2,2,0,2,4285,38775,10872,7983,10,10,0,10,0.00,0.00,0.00,0.00
2016-09-05 01:30:00,2,16760,6,0.00,2,2,0,2,2876,44732,15324,9210,0,10,5,10,0.00,0.00,0.00,0.00
2016-09-05 01:40:00,2,21967,10,0.00,2,2,0,2,4052,50000,18023,13565,10,10,0,10,0.00,0.00,0.00,0.00
2016-09-05 01:50:00,2,42057,3,0.00,2,2,0,2,24752,50000,9105,46084,0,10,5,0,0.00,0.00,0.00,0.00
2016-09-05 02:00:00,2,40021,0,0.00,2,2,0,2,11405,50000,14319,48498,0,0,0,0,0.00,0.00,0.00,0.00
2016-09-05 02:10:00,2,7188,4,0.00,2,2,0,2,4562,10401,1727,7110,0,10,5,0,0.00,0.00,0.00,0.00
2016-09-05 02:20:00,2,12450,10,0.00,2,2,0,2,3399,32071,9714,7778,10,10,0,10,0.00,0.00,0.00,0.00
2016-09-05 02:30:00,2,7975,10,0.00,2,2,0,2,4421,11484,2259,8014,10,10,0,10,0.00,0.00,0.00,0.00
2016-09-05 02:40:00,2,13830,10,0.00,2,2,0,2,5422,34427,7567,12278,10,10,0,10,0.00,0.00,0.00,0.00
2016-09-05 02:50:00,2,17705,1,0.00,2,2,0,2,6647,33863,8008,17482,0,10,3,0,0.00,0.00,0.00,0.00
2016-09-05 03:00:00,2,25119,0,0.00,2,2,0,2,8221,47320,13399,21028,0,0,0,0,0.00,0.00,0.00,0.00
2016-09-05 03:10:00,2,21499,0,0.00,0,2,1,2,12878,32692,6234,21242,0,0,0,0,0.00,0.00,0.00,0.00
2016-09-05 03:20:00,2,36157,0,0.00,2,2,0,2,21273,48743,7303,36912,0,0,0,0,0.00,0.00,0.00,0.00
2016-09-05 03:30:00,2,19316,0,0.00,2,2,0,2,8172,35731,8539,20122,0,0,0,0,0.00,0.00,0.00,0.00
2016-09-05 03:40:00,2,6648,7,0.00,2,2,0,2,3524,11818,2773,6166,0,10,5,10,0.00,0.00,0.00,0.00
2016-09-05 03:50:00,2,11578,5,0.00,2,2,0,2,5434,23579,4757,9820,0,10,5,5,0.00,0.00,0.00,0.00
2016-09-05 04:00:00,2,16366,0,0.00,2,2,0,2,5153,31274,8257,17493,0,0,0,0,0.00,0.00,0.00,0.00
2016-09-05 04:10:00,2,11189,6,0.00,2,2,0,2,2686,22940,6301,9405,0,10,5,10,0.00,0.00,0.00,0.00
2016-09-05 04:20:00,2,13210,7,0.00,2,2,0,2,4989,35189,10584,8268,0,10,5,10,0.00,0.00,0.00,0.00
2016-09-05 04:30:00,2,41000,0,0.00,2,2,0,2,2520,50000,17218,50000,0,0,0,0,0.00,0.00,0.00,0.00
2016-09-05 04:40:00,2,4074,8,0.00,0,2,1,2,1770,8185,1737,3884,0,10,4,10,0.00,0.00,0.00,0.00
2016-09-05 04:50:00,1,3205,10,0.00,0,2,1,2,1118,8360,2064,2854,10,10,0,10,0.00,0.00,0.00,0.00
2016-09-05 05:00:00,0,13662,5,0.00,0,0,0,0,2226,26670,7856,15062,0,10,5,5,0.00,0.00,0.00,0.00
2016-09-05 05:10:00,1,21185,0,0.00,0,2,1,2,10228,40828,10300,18172,0,0,0,0,0.00,0.00,0.00,0.00
2016-09-05 05:20:00,2,32712,0,0.00,2,2,0,2,21639,44867,6674,33321,0,0,0,0,0.00,0.00,0.00,0.00
2016-09-05 05:30:00,1,48838,0,0.00,0,2,1,0,44655,50000,2075,50000,0,0,0,0,0.00,0.00,0.00,0.00
2016-09-05 05:40:00,0,47336,0,0.00,0,0,0,0,40358,50000,3253,48839,0,0,0,0,0.00,0.00,0.00,0.00
2016-09-05 05:50:00,0,46541,0,0.00,0,0,0,0,38132,50000,3859,46980,0,0,0,0,0.00,0.00,0.00,0.00
2016-09-05 06:00:00,0,49161,0,0.00,0,0,0,0,44376,50000,1700,50000,0,0,0,0,0.00,0.00,0.00,0.00
2016-09-05 06:10:00,0,34353,0,0.00,0,0,0,0,15165,50000,10761,34224,0,0,0,0,0.00,0.00,0.00,0.00
2016-09-05 06:20:00,0,30297,0,0.00,0,0,0,0,8261,50000,14353,31652,0,0,0,0,0.00,0.00,0.00,0.00
2016-09-05 06:30:00,0,16786,0,0.00,0,0,0,0,6511,29353,7788,15714,0,0,0,0,0.00,0.00,0.00,0.00
2016-09-05 06:40:00,0,41646,0,0.00,0,0,0,0,29543,50000,7356,41855,0,0,0,0,0.00,0.00,0.00,0.00
2016-09-05 06:50:00,0,31245,0,0.00,0,0,0,0,3836,50000,20288,43866,0,0,0,0,0.00,0.00,0.00,0.00
2016-09-05 07:00:00,0,4337,12,0.00,0,0,0,0,414,34625,10117,770,0,34,11,10,0.00,0.00,0.00,0.00
2016-09-05 07:10:00,1,711,34,0.00,0,2,1,2,341,1577,354,630,34,34,0,34,0.00,0.00,0.00,0.00
2016-09-05 07:20:00,2,660,34,0.00,2,2,0,2,489,874,133,628,34,34,0,34,0.00,0.00,0.00,0.00
2016-09-05 07:30:00,2,937,34,0.00,2,2,0,2,436,2904,686,783,34,34,0,34,0.00,0.00,0.00,0.00
2016-09-05 07:40:00,1,10652,27,0.00,0,2,1,1,3272,19294,4570,9962,20,34,7,27,0.00,0.00,0.00,0.00
2016-09-05 07:50:00,0,42095,20,0.00,0,0,0,0,17688,50000,10904,48470,20,20,0,20,0.00,0.00,0.00,0.00
2016-09-05 08:00:00,0,49761,20,0.00,0,0,0,0,47607,50000,718,50000,20,20,0,20,0.00,0.00,0.00,0.00
2016-09-05 08:10:00,0,50000,20,0.00,0,0,0,0,50000,50000,0,50000,20,20,0,20,0.00,0.00,0.00,0.00
2016-09-05 08:20:00,0,50000,20,0.00,0,0,0,0,50000,50000,0,50000,20,20,0,20,0.00,0.00,0.00,0.00
2016-09-05 08:30:00,0,49512,20,0.00,0,0,0,0,45116,50000,1465,50000,20,20,0,20,0.00,0.00,0.00,0.00
2016-09-05 08:40:00,0,49604,8,0.00,0,0,0,0,47444,50000,833,50000,0,20,10,0,0.00,0.00,0.00,0.00
2016-09-05 08:50:00,0,50000,0,0.00,0,0,0,0,49997,50000,1,50000,0,0,0,0,0.00,0.00,0.00,0.00
2016-09-05 09:00:00,0,49902,0,0.00,0,0,0,0,49346,50000,209,50000,0,0,0,0,0.00,0.00,0.00,0.00
2016-09-05 09:10:00,0,50000,0,0.00,0,0,0,0,50000,50000,0,50000,0,0,0,0,0.00,0.00,0.00,0.00
2016-09-05 09:20:00,0,50000,0,0.00,0,0,0,0,50000,50000,0,50000,0,0,0,0,0.00,0.00,0.00,0.00
2016-09-05 09:30:00,0,50000,0,0.00,0,0,0,0,50000,50000,0,50000,0,0,0,0,0.00,0.00,0.00,0.00
2016-09-05 09:40:00,0,50000,0,0.00,0,0,0,0,50000,50000,0,50000,0,0,0,0,0.00,0.00,0.00,0.00
2016-09-05 09:50:00,0,50000,0,0.00,0,0,0,0,50000,50000,0,50000,0,0,0,0,0.00,0.00,0.00,0.00
2016-09-05 10:00:00,0,50000,0,0.00,0,0,0,0,50000,50000,0,50000,0,0,0,0,0.00,0.00,0.00,0.00
2016-09-05 10:10:00,0,50000,0,0.00,0,0,0,0,50000,50000,0,50000,0,0,0,0,0.00,0.00,0.00,0.00
2016-09-05 10:20:00,0,50000,0,0.00,0,0,0,0,50000,50000,0,50000,0,0,0,0,0.00,0.00,0.00,0.00
2016-09-05 10:30:00,0,50000,0,0.00,0,0,0,0,50000,50000,0,50000,0,0,0,0,0.00,0.00,0.00,0.00
2016-09-05 10:40:00,0,50000,0,0.00,0,0,0,0,50000,50000,0,50000,0,0,0,0,0.00,0.00,0.00,0.00
2016-09-05 10:50:00,0,50000,0,0.00,0,0,0,0,50000,50000,0,50000,0,0,0,0,0.00,0.00,0.00,0.00
2016-09-05 11:00:00,0,50000,0,0.00,0,0,0,0,50000,50000,0,50000,0,0,0,0,0.00,0.00,0.00,0.00
2016-09-05 11:10:00,0,50000,0,0.00,0,0,0,0,50000,50000,0,50000,0,0,0,0,0.00,0.00,0.00,0.00
2016-09-05 11:20:00,0,50000,0,0.00,0,0,0,0,50000,50000,0,50000,0,0,0,0,0.00,0.00,0.00,0.00
2016-09-05 11:30:00,0,50000,0,0.00,0,0,0,0,50000,50000,0,50000,0,0,0,0,0.00,0.00,0.00,0.00
2016-09-05 11:40:00,0,50000,0,0.00,0,0,0,0,50000,50000,0,50000,0,0,0,0,0.00,0.00,0.00,0.00
2016-09-05 11:50:00,0,50000,0,0.00,0,0,0,0,50000,50000,0,50000,0,0,0,0,0.00,0.00,0.00,0.00
2016-09-05 12:00:00,0,50000,0,0.00,0,0,0,0,50000,50000,0,50000,0,0,0,0,0.00,0.00,0.00,0.00
2016-09-05 12:10:00,0,48638,0,0.00,0,0,0,0,42543,50000,2304,50000,0,0,0,0,0.00,0.00,0.00,0.00
2016-09-05 12:20:00,0,24076,0,0.00,0,2,1,0,12396,32919,7394,23018,0,0,0,0,0.00,0.00,0.00,0.00
2016-09-05 12:30:00,2,32691,0,0.00,2,2,0,2,12861,46567,10788,32198,0,0,0,0,0.00,0.00,0.00,0.00
2016-09-05 12:40:00,2,2060,7,0.00,2,2,0,2,701,5639,1580,1194,0,10,5,10,0.00,0.00,0.00,0.00
2016-09-05 12:50:00,2,5857,10,0.00,2,2,0,2,3158,7908,1522,6175,10,10,0,10,0.00,0.00,0.00,0.00
2016-09-05 13:00:00,2,1385,14,0.00,2,2,0,2,558,6112,1626,694,10,34,9,10,0.00,0.00,0.00,0.00
2016-09-05 13:10:00,2,1372,34,0.00,2,2,0,2,677,2920,732,1108,34,34,0,34,0.00,0.00,0.00,0.00
2016-09-05 13:20:00,2,2004,23,0.00,2,2,0,2,929,3585,829,1786,20,34,6,20,0.00,0.00,0.00,0.00
2016-09-05 13:30:00,2,300,31,0.00,2,2,0,2,171,679,137,260,20,34,6,34,0.00,0.00,0.00,0.00
2016-09-05 13:40:00,2,248,34,0.00,2,2,0,2,158,355,61,234,33,34,0,34,0.00,0.00,0.00,0.00
2016-09-05 13:50:00,2,245,34,0.00,2,2,0,2,176,374,56,230,33,34,0,34,0.00,0.00,0.00,0.00
2016-09-05 14:00:00,2,357,34,0.00,2,2,0,2,314,390,23,357,34,34,0,34,0.00,0.00,0.00,0.00
2016-09-05 14:10:00,2,292,34,0.00,2,2,0,2,209,451,69,269,34,34,0,34,0.00,0.00,0.00,0.00
2016-09-05 14:20:00,2,385,33,0.00,2,2,0,2,233,574,100,370,30,34,1,33,0.00,0.00,0.00,0.00
2016-09-05 14:30:00,2,757,32,0.00,2,2,0,2,433,1236,227,760,30,33,1,32,0.00,0.00,0.00,0.00
2016-09-05 14:40:00,2,598,32,0.00,2,2,0,2,523,650,40,604,32,32,0,32,0.00,0.00,0.00,0.00
2016-09-05 14:50:00,2,514,32,0.00,2,2,0,2,426,586,46,526,32,32,0,32,0.00,0.00,0.00,0.00
2016-09-05 15:00:00,2,411,32,0.00,2,2,0,2,356,465,35,418,32,32,0,32,0.00,0.00,0.00,0.00
2016-09-05 15:10:00,2,444,33,0.00,2,2,0,2,369,613,63,438,30,33,1,33,0.00,0.00,0.00,0.00
2016-09-05 15:20:00,2,636,31,0.00,2,2,0,2,481,763,91,631,30,33,1,30,0.00,0.00,0.00,0.00
2016-09-05 15:30:00,2,1188,33,0.00,2,2,0,2,585,2350,587,942,30,33,1,33,0.00,0.00,0.00,0.00
2016-09-05 15:40:00,2,2152,24,0.00,2,2,0,2,1198,4164,1001,1648,20,33,6,20,0.00,0.00,0.00,0.00
2016-09-05 15:50:00,1,1041,21,0.00,0,2,1,2,622,1755,292,968,20,30,3,20,0.00,0.00,0.00,0.00
2016-09-05 16:00:00,0,845,32,0.00,0,2,1,0,283,2653,726,602,30,32,1,32,0.00,0.00,0.00,0.00
2016-09-05 16:10:00,0,1366,32,0.00,0,0,0,0,256,7089,1989,588,31,32,0,32,0.00,0.00,0.00,0.00
2016-09-05 16:20:00,0,788,31,0.00,0,2,1,0,384,1902,488,556,31,31,0,31,0.00,0.00,0.00,0.00
2016-09-05 16:30:00,2,857,31,0.00,2,2,0,2,563,1500,314,722,31,31,0,31,0.00,0.00,0.00,0.00
2016-09-05 16:40:00,2,308,33,0.00,2,2,0,2,200,382,52,332,31,34,1,34,0.00,0.00,0.00,0.00
2016-09-05 16:50:00,2,242,34,0.00,2,2,0,2,203,307,30,233,34,34,0,34,0.00,0.00,0.00,0.00
2016-09-05 17:00:00,2,208,34,0.00,0,2,1,2,158,269,28,211,34,34,0,34,0.00,0.00,0.00,0.00
2016-09-05 17:10:00,1,206,34,0.00,0,2,1,2,157,265,31,200,33,34,0,34,0.00,0.00,0.00,0.00
2016-09-05 17:20:00,2,222,34,0.00,0,2,1,2,185,333,46,203,34,34,0,34,0.00,0.00,0.00,0.00
2016-09-05 17:30:00,2,682,34,0.00,0,2,1,2,374,1312,317,532,33,34,0,34,0.00,0.00,0.00,0.00
2016-09-05 17:40:00,2,1342,31,0.00,2,2,0,2,685,2036,400,1272,20,33,4,32,0.00,0.00,0.00,0.00
2016-09-05 17:50:00,2,7186,20,0.00,2,2,0,2,930,20394,7360,3240,20,20,0,20,0.00,0.00,0.00,0.00
2016-09-05 18:00:00,2,32761,20,0.00,2,2,0,2,19526,48053,10714,28740,20,20,0,20,0.00,0.00,0.00,0.00
2016-09-05 18:10:00,2,43993,20,0.00,0,2,1,2,17729,50000,9504,48776,20,20,0,20,0.00,0.00,0.00,0.00
2016-09-05 18:20:00,2,26534,20,0.00,0,2,1,2,10480,40659,9088,25592,20,20,0,20,0.00,0.00,0.00,0.00
2016-09-05 18:30:00,2,31437,20,0.00,0,2,1,2,19220,46998,7771,28950,20,20,0,20,0.00,0.00,0.00,0.00
2016-09-05 18:40:00,2,46998,18,0.00,0,2,1,2,34799,50000,4937,49654,0,20,6,20,0.00,0.00,0.00,0.00
2016-09-05 18:50:00,0,45425,0,0.00,0,0,0,0,37264,49246,3281,45965,0,0,0,0,0.00,0.00,0.00,0.00
2016-09-05 19:00:00,0,45809,0,0.00,0,0,0,0,40660,50000,3561,46742,0,0,0,0,0.00,0.00,0.00,0.00
2016-09-05 19:10:00,0,47855,0,0.00,0,0,0,0,43109,50000,2439,48864,0,0,0,0,0.00,0.00,0.00,0.00
2016-09-05 19:20:00,0,49465,0,0.00,0,0,0,0,46301,50000,1142,50000,0,0,0,0,0.00,0.00,0.00,0.00
2016-09-05 19:30:00,0,50000,0,0.00,0,0,0,0,50000,50000,0,50000,0,0,0,0,0.00,0.00,0.00,0.00
2016-09-05 19:40:00,0,50000,0,0.00,0,0,0,0,50000,50000,0,50000,0,0,0,0,0.00,0.00,0.00,0.00
2016-09-05 19:50:00,0,50000,0,0.00,0,0,0,0,50000,50000,0,50000,0,0,0,0,0.00,0.00,0.00,0.00
2016-09-05 20:00:00,0,49948,0,0.00,0,0,0,0,49485,50000,154,50000,0,0,0,0,0.00,0.00,0.00,0.00
2016-09-05 20:10:00,0,49366,0,0.00,0,0,0,0,47093,50000,1046,50000,0,0,0,0,0.00,0.00,0.00,0.00
2016-09-05 20:20:00,0,49558,0,0.00,0,0,0,0,45729,50000,1277,50000,0,0,0,0,0.00,0.00,0.00,0.00
2016-09-05 20:30:00,0,49932,0,0.00,0,0,0,0,49325,50000,202,50000,0,0,0,0,0.00,0.00,0.00,0.00
2016-09-05 20:40:00,0,50000,0,0.00,0,0,0,0,50000,50000,0,50000,0,0,0,0,0.00,0.00,0.00,0.00
2016-09-05 20:50:00,0,49876,0,0.00,0,0,0,0,48762,50000,371,50000,0,0,0,0,0.00,0.00,0.00,0.00
2016-09-05 21:00:00,0,49918,0,0.00,0,0,0,0,49176,50000,247,50000,0,0,0,0,0.00,0.00,0.00,0.00
2016-09-05 21:10:00,0,48533,0,0.00,0,0,0,0,45005,50000,1830,49632,0,0,0,0,0.00,0.00,0.00,0.00
2016-09-05 21:20:00,0,49870,0,0.00,0,0,0,0,48700,50000,390,50000,0,0,0,0,0.00,0.00,0.00,0.00
2016-09-05 21:30:00,0,48850,0,0.00,0,0,0,0,46035,50000,1419,49520,0,0,0,0,0.00,0.00,0.00,0.00
2016-09-05 21:40:00,0,47379,0,0.00,0,0,0,0,36843,50000,4332,49948,0,0,0,0,0.00,0.00,0.00,0.00
2016-09-05 21:50:00,0,49658,0,0.00,0,0,0,0,48258,50000,660,50000,0,0,0,0,0.00,0.00,0.00,0.00
2016-09-05 22:00:00,0,49651,0,0.00,0,0,0,0,46688,50000,989,50000,0,0,0,0,0.00,0.00,0.00,0.00
2016-09-05 22:10:00,0,47150,0,0.00,0,0,0,0,42690,50000,2291,46937,0,0,0,0,0.00,0.00,0.00,0.00
2016-09-05 22:20:00,0,47869,0,0.00,0,0,0,0,41640,50000,2437,48035,0,0,0,0,0.00,0.00,0.00,0.00
2016-09-05 22:30:00,0,42677,0,0.00,0,0,0,0,33785,50000,5794,43674,0,0,0,0,0.00,0.00,0.00,0.00
2016-09-05 22:40:00,0,48464,0,0.00,0,0,0,0,42142,50000,3073,50000,0,0,0,0,0.00,0.00,0.00,0.00
2016-09-05 22:50:00,0,49309,0,0.00,0,0,0,0,47081,50000,1083,50000,0,0,0,0,0.00,0.00,0.00,0.00
2016-09-05 23:00:00,0,47258,0,0.00,0,0,0,0,39866,50000,3865,49640,0,0,0,0,0.00,0.00,0.00,0.00
2016-09-05 23:10:00,0,49639,0,0.00,0,0,0,0,48416,50000,517,50000,0,0,0,0,0.00,0.00,0.00,0.00
2016-09-05 23:20:00,0,47137,0,0.00,0,0,0,0,34733,50000,4426,48466,0,0,0,0,0.00,0.00,0.00,0.00
2016-09-05 23:30:00,0,47489,0,0.00,0,0,0,0,32812,50000,5273,50000,0,0,0,0,0.00,0.00,0.00,0.00
2016-09-05 23:40:00,0,45579,0,0.00,0,0,0,0,37831,50000,3645,46425,0,0,0,0,0.00,0.00,0.00,0.00
2016-09-05 23:50:00,0,45523,0,0.00,0,0,0,0,30248,50000,6264,49508,0,0,0,0,0.00,0.00,0.00,0.00
